AUA383 LOWW-LOWL

Flight info

Callsign AUA383
Flight time 0h 25m
Altitude 16000
Route SOVIL DCT SITNI SITNI2K
Aircraft DH8D/M-SDE2E3FGRY/H

Departure

Time 2026-04-22 15:02
Airport Vienna International Airport (LOWW)

Arrival

Time 2026-04-22 15:27
Airport Linz-Hörsching Airport (LOWL)
Time Latitude Longitude Altitude Speed Heading
2026-04-22 14:44 48.11676 16.56930 602 ft 0 kts 26°
2026-04-22 14:53 48.11663 16.56921 602 ft 2 kts 25°
2026-04-22 14:54 48.11649 16.56911 602 ft 1 kts 25°
2026-04-22 14:54 48.11626 16.56895 602 ft 6 kts 24°
2026-04-22 14:54 48.11608 16.56869 602 ft 5 kts 70°
2026-04-22 14:54 48.11604 16.56862 602 ft 3 kts 116°
2026-04-22 14:55 48.11562 16.56917 603 ft 10 kts 172°
2026-04-22 14:55 48.11478 16.56879 604 ft 14 kts 206°
2026-04-22 14:55 48.11383 16.56827 604 ft 14 kts 175°
2026-04-22 14:55 48.11321 16.56932 606 ft 15 kts 116°
2026-04-22 14:56 48.11270 16.57086 607 ft 17 kts 116°
2026-04-22 14:56 48.11212 16.57265 608 ft 20 kts 116°
2026-04-22 14:56 48.11151 16.57453 609 ft 20 kts 115°
2026-04-22 14:56 48.11086 16.57649 609 ft 21 kts 117°
2026-04-22 14:57 48.10992 16.57815 610 ft 22 kts 163°
2026-04-22 14:57 48.10840 16.57879 611 ft 22 kts 165°
2026-04-22 14:57 48.10680 16.57947 613 ft 24 kts 164°
2026-04-22 14:57 48.10511 16.58018 615 ft 25 kts 165°
2026-04-22 14:58 48.10344 16.58089 616 ft 24 kts 164°
2026-04-22 14:58 48.10179 16.58159 616 ft 24 kts 164°
2026-04-22 14:58 48.10011 16.58230 616 ft 25 kts 164°
2026-04-22 14:58 48.09837 16.58304 615 ft 26 kts 164°
2026-04-22 14:59 48.09658 16.58380 614 ft 27 kts 165°
2026-04-22 14:59 48.09477 16.58456 611 ft 26 kts 164°
2026-04-22 14:59 48.09303 16.58530 608 ft 25 kts 164°
2026-04-22 14:59 48.09131 16.58602 605 ft 25 kts 164°
2026-04-22 15:00 48.08995 16.58666 601 ft 18 kts 154°
2026-04-22 15:00 48.08922 16.58813 598 ft 19 kts 97°
2026-04-22 15:00 48.08962 16.58988 596 ft 16 kts 45°
2026-04-22 15:00 48.09056 16.59050 598 ft 15 kts 360°
2026-04-22 15:01 48.09193 16.58999 602 ft 40 kts 345°
2026-04-22 15:01 48.09733 16.58771 611 ft 116 kts 344°
2026-04-22 15:01 48.10635 16.58397 781 ft 142 kts 345°
2026-04-22 15:01 48.11609 16.58008 1193 ft 152 kts 346°
2026-04-22 15:02 48.12651 16.57584 1724 ft 159 kts 346°
2026-04-22 15:02 48.13724 16.57136 2312 ft 163 kts 346°
2026-04-22 15:02 48.14765 16.56476 2818 ft 172 kts 321°
2026-04-22 15:02 48.15218 16.54806 3202 ft 186 kts 268°
2026-04-22 15:03 48.14623 16.53071 3718 ft 195 kts 231°
2026-04-22 15:03 48.13689 16.51622 4335 ft 195 kts 230°
2026-04-22 15:03 48.12749 16.50149 4886 ft 198 kts 231°
2026-04-22 15:03 48.11801 16.48642 5456 ft 199 kts 231°
2026-04-22 15:04 48.10865 16.47130 6020 ft 201 kts 232°
2026-04-22 15:04 48.09917 16.45580 6567 ft 202 kts 233°
2026-04-22 15:04 48.09030 16.43933 7041 ft 203 kts 237°
2026-04-22 15:04 48.08190 16.42256 7501 ft 205 kts 237°
2026-04-22 15:05 48.07334 16.40540 7956 ft 207 kts 237°
2026-04-22 15:05 48.06429 16.38718 8013 ft 230 kts 237°
2026-04-22 15:05 48.05452 16.36760 8410 ft 238 kts 237°
2026-04-22 15:05 48.04460 16.34772 8887 ft 242 kts 236°
2026-04-22 15:06 48.03536 16.32647 9365 ft 242 kts 251°
2026-04-22 15:06 48.03326 16.30184 9833 ft 239 kts 274°
2026-04-22 15:06 48.03372 16.27711 10358 ft 241 kts 274°
2026-04-22 15:06 48.03421 16.25218 10873 ft 244 kts 275°
2026-04-22 15:07 48.03472 16.22665 11379 ft 246 kts 275°
2026-04-22 15:07 48.03522 16.20090 11864 ft 248 kts 275°
2026-04-22 15:07 48.03569 16.17525 12326 ft 250 kts 275°
2026-04-22 15:07 48.03614 16.14917 12790 ft 252 kts 275°
2026-04-22 15:08 48.03659 16.12286 13244 ft 254 kts 275°
2026-04-22 15:08 48.03703 16.09630 13686 ft 256 kts 275°
2026-04-22 15:08 48.03748 16.06966 14109 ft 259 kts 275°
2026-04-22 15:08 48.03791 16.04287 14556 ft 261 kts 275°
2026-04-22 15:09 48.03836 16.01557 15009 ft 263 kts 275°
2026-04-22 15:09 48.03879 15.98807 15422 ft 265 kts 275°
2026-04-22 15:09 48.03922 15.96048 15774 ft 267 kts 275°
2026-04-22 15:09 48.03964 15.93268 16060 ft 271 kts 275°
2026-04-22 15:10 48.04009 15.90391 16179 ft 282 kts 275°
2026-04-22 15:10 48.04054 15.87406 16230 ft 295 kts 275°
2026-04-22 15:10 48.04100 15.84305 16248 ft 306 kts 275°
2026-04-22 15:10 48.04146 15.81054 16254 ft 317 kts 275°
2026-04-22 15:11 48.04191 15.77742 16271 ft 325 kts 275°
2026-04-22 15:11 48.04237 15.74292 16266 ft 333 kts 275°
2026-04-22 15:11 48.04282 15.70851 16277 ft 339 kts 275°
2026-04-22 15:11 48.04328 15.67263 16258 ft 344 kts 275°
2026-04-22 15:12 48.04372 15.63720 16232 ft 347 kts 275°
2026-04-22 15:12 48.04417 15.60076 16235 ft 348 kts 275°
2026-04-22 15:12 48.04460 15.56460 16249 ft 350 kts 275°
2026-04-22 15:12 48.04502 15.52857 16255 ft 351 kts 275°
2026-04-22 15:13 48.04544 15.49179 16262 ft 352 kts 275°
2026-04-22 15:13 48.04584 15.45527 16267 ft 353 kts 275°
2026-04-22 15:13 48.04625 15.41834 16269 ft 354 kts 275°
2026-04-22 15:13 48.04663 15.38172 16269 ft 355 kts 275°
2026-04-22 15:14 48.04709 15.34483 16269 ft 355 kts 274°
2026-04-22 15:14 48.04771 15.30800 16268 ft 355 kts 275°
2026-04-22 15:14 48.04831 15.27109 16196 ft 352 kts 274°
2026-04-22 15:14 48.04883 15.23513 15717 ft 339 kts 274°
2026-04-22 15:15 48.04930 15.20061 15219 ft 328 kts 275°
2026-04-22 15:15 48.05034 15.16742 14702 ft 316 kts 282°
2026-04-22 15:15 48.05644 15.13688 14190 ft 302 kts 295°
2026-04-22 15:15 48.06434 15.10824 13673 ft 294 kts 297°
2026-04-22 15:16 48.07216 15.08044 13156 ft 288 kts 297°
2026-04-22 15:16 48.07982 15.05322 12637 ft 282 kts 297°
2026-04-22 15:16 48.08731 15.02660 12117 ft 277 kts 297°
2026-04-22 15:16 48.09483 14.99989 11595 ft 276 kts 297°
2026-04-22 15:17 48.10220 14.97382 11080 ft 274 kts 297°
2026-04-22 15:17 48.10955 14.94773 10561 ft 272 kts 297°
2026-04-22 15:17 48.11702 14.92147 10037 ft 271 kts 297°
2026-04-22 15:17 48.12442 14.89568 9522 ft 269 kts 297°
2026-04-22 15:18 48.13170 14.87032 9013 ft 267 kts 297°
2026-04-22 15:18 48.13907 14.84488 8496 ft 263 kts 297°
2026-04-22 15:18 48.14620 14.82032 7990 ft 259 kts 297°
2026-04-22 15:18 48.15349 14.79584 7479 ft 255 kts 297°
2026-04-22 15:19 48.16067 14.77199 6970 ft 250 kts 297°
2026-04-22 15:19 48.16778 14.74869 6465 ft 245 kts 297°
2026-04-22 15:19 48.17492 14.72557 5960 ft 242 kts 297°
2026-04-22 15:19 48.18197 14.70321 5465 ft 239 kts 297°
2026-04-22 15:20 48.18913 14.68097 4965 ft 236 kts 297°
2026-04-22 15:20 48.19633 14.65908 4556 ft 229 kts 297°
2026-04-22 15:20 48.20324 14.63821 4223 ft 225 kts 297°
2026-04-22 15:20 48.21021 14.61725 4087 ft 222 kts 297°
2026-04-22 15:21 48.21703 14.59648 4050 ft 220 kts 297°
2026-04-22 15:21 48.22367 14.57604 4028 ft 221 kts 297°
2026-04-22 15:21 48.23040 14.55518 4012 ft 223 kts 297°
2026-04-22 15:21 48.23700 14.53478 3993 ft 211 kts 297°
2026-04-22 15:22 48.24382 14.51595 4016 ft 201 kts 304°
2026-04-22 15:22 48.24739 14.49618 3982 ft 197 kts 264°
2026-04-22 15:22 48.24398 14.47664 4022 ft 190 kts 261°
2026-04-22 15:22 48.24273 14.45724 4016 ft 185 kts 270°
2026-04-22 15:23 48.24199 14.43878 3988 ft 169 kts 268°
2026-04-22 15:23 48.24120 14.42197 3907 ft 152 kts 269°
2026-04-22 15:23 48.24066 14.40644 3660 ft 147 kts 270°
2026-04-22 15:23 48.24017 14.39155 3415 ft 141 kts 270°
2026-04-22 15:24 48.23970 14.37728 3196 ft 134 kts 270°
2026-04-22 15:24 48.23930 14.36308 3059 ft 135 kts 270°
2026-04-22 15:24 48.23886 14.34905 2876 ft 136 kts 269°
2026-04-22 15:24 48.23838 14.33495 2700 ft 135 kts 269°
2026-04-22 15:25 48.23786 14.32084 2490 ft 131 kts 268°
2026-04-22 15:25 48.23742 14.30717 2339 ft 133 kts 269°
2026-04-22 15:25 48.23700 14.29303 2157 ft 136 kts 268°
2026-04-22 15:25 48.23645 14.27938 1979 ft 135 kts 267°
2026-04-22 15:26 48.23580 14.26546 1820 ft 132 kts 266°
2026-04-22 15:26 48.23538 14.25164 1613 ft 132 kts 268°
2026-04-22 15:26 48.23502 14.23788 1444 ft 132 kts 268°
2026-04-22 15:26 48.23455 14.22438 1257 ft 129 kts 267°
2026-04-22 15:27 48.23401 14.21087 1068 ft 129 kts 269°
2026-04-22 15:27 48.23358 14.19773 976 ft 121 kts 268°
2026-04-22 15:27 48.23322 14.18766 978 ft 74 kts 266°
2026-04-22 15:27 48.23305 14.18253 980 ft 32 kts 266°
2026-04-22 15:28 48.23298 14.17963 982 ft 24 kts 276°
2026-04-22 15:28 48.23389 14.17900 981 ft 18 kts 15°
2026-04-22 15:28 48.23533 14.17960 981 ft 24 kts 15°
2026-04-22 15:28 48.23695 14.18044 980 ft 23 kts 41°
2026-04-22 15:29 48.23723 14.18262 979 ft 21 kts 87°
2026-04-22 15:29 48.23731 14.18487 979 ft 22 kts 87°
2026-04-22 15:29 48.23739 14.18736 977 ft 25 kts 86°
2026-04-22 15:30 48.23772 14.19207 976 ft 14 kts 29°
2026-04-22 15:30 48.23856 14.19208 976 ft 8 kts 357°
2026-04-22 15:30 48.23880 14.19241 975 ft 5 kts 83°
2026-04-22 15:30 48.23882 14.19274 975 ft 0 kts 87°